IBE04EA LEMD-LEVX

Flight info

Callsign IBE04EA
Flight time N/A
Altitude 31000
Route ZMR N733 DESAT DCT BARKO
Aircraft A320/M-SDE3FGHIRWY/LB1

Departure

Time N/A
Airport Adolfo Suárez Madrid–Barajas Airport (LEMD)

Arrival

Time 2026-04-30 17:53
Airport Vigo Airport (LEVX)
Time Latitude Longitude Altitude Speed Heading
2026-04-30 17:39 42.37339 -7.84369 14826 ft 370 kts 282°
2026-04-30 17:41 42.42288 -8.10939 10807 ft 346 kts 282°
2026-04-30 17:42 42.43385 -8.16833 10482 ft 302 kts 282°
2026-04-30 17:42 42.44877 -8.24945 9871 ft 293 kts 281°
2026-04-30 17:43 42.45853 -8.30296 9593 ft 292 kts 281°
2026-04-30 17:44 42.47257 -8.37932 8531 ft 264 kts 281°
2026-04-30 17:44 42.48521 -8.44880 7519 ft 246 kts 280°
2026-04-30 17:46 42.48156 -8.54599 7136 ft 170 kts 225°
2026-04-30 17:47 42.44239 -8.56930 5905 ft 163 kts 191°
2026-04-30 17:48 42.39798 -8.58145 4254 ft 161 kts 192°
2026-04-30 17:48 42.36594 -8.59021 3382 ft 148 kts 192°
2026-04-30 17:49 42.32648 -8.60099 2586 ft 144 kts 193°
2026-04-30 17:50 42.28695 -8.61177 1803 ft 146 kts 192°
2026-04-30 17:51 42.25648 -8.62009 1172 ft 147 kts 193°
2026-04-30 17:52 42.22950 -8.62747 837 ft 84 kts 192°
2026-04-30 17:53 42.22111 -8.63124 843 ft 8 kts 286°
2026-04-30 17:54 42.22321 -8.63130 834 ft 6 kts 14°
2026-04-30 17:55 42.22464 -8.63092 833 ft 7 kts 11°
2026-04-30 17:56 42.22532 -8.63080 835 ft 2 kts 320°
2026-04-30 17:57 42.22536 -8.63088 835 ft 0 kts 303°
2026-04-30 17:58 42.22543 -8.63150 834 ft 2 kts 284°
2026-04-30 17:59 42.22547 -8.63173 837 ft 0 kts 282°